| time (UTC) | temp C | wind direction | speed KPH | gust KPH | rain 1hr cm | rain 24hr cm | rain mn cm | humidity % | barometer mb |
| 20260508183339 | 21 | 117 | 3.2 | 4.8 | 0.00 | 0.00 | 0.00 | 35 | 1017.6 |
| 20260508182839 | 20 | 223 | 1.6 | 4.8 | 0.00 | 0.00 | 0.00 | 33 | 1017.9 |
| 20260508182340 | 21 | 273 | 3.2 | 6.4 | 0.00 | 0.00 | 0.00 | 35 | 1017.9 |
| 20260508181839 | 20 | 221 | 8.0 | 9.7 | 0.00 | 0.00 | 0.00 | 36 | 1017.9 |
| 20260508181339 | 20 | 88 | 1.6 | 6.4 | 0.00 | 0.00 | 0.00 | 36 | 1018.3 |
| 20260508180839 | 19 | 73 | 4.8 | 11.3 | 0.00 | 0.00 | 0.00 | 35 | 1018.6 |
| 20260508180340 | 20 | 78 | 4.8 | 11.3 | 0.00 | 0.00 | 0.00 | 33 | 1018.3 |
| 20260508175839 | 20 | 147 | 1.6 | 4.8 | 0.00 | 0.00 | 0.00 | 35 | 1018.6 |
| 20260508175340 | 19 | 160 | 1.6 | 4.8 | 0.00 | 0.00 | 0.00 | 35 | 1019.0 |
| 20260508174839 | 20 | 220 | 6.4 | 8.0 | 0.00 | 0.00 | 0.00 | 32 | 1019.0 |
| 20260508174339 | 20 | 243 | 4.8 | 8.0 | 0.00 | 0.00 | 0.00 | 36 | 1019.0 |
| 20260508173839 | 19 | 234 | 3.2 | 4.8 | 0.00 | 0.00 | 0.00 | 37 | 1019.0 |
| 20260508173339 | 19 | 349 | 3.2 | 8.0 | 0.00 | 0.00 | 0.00 | 36 | 1019.3 |
| 20260508172839 | 19 | 241 | 4.8 | 8.0 | 0.00 | 0.00 | 0.00 | 37 | 1019.0 |
| 20260508172340 | 19 | 256 | 4.8 | 9.7 | 0.00 | 0.00 | 0.00 | 36 | 1019.0 |
| 20260508171840 | 19 | 135 | 0.0 | 4.8 | 0.00 | 0.00 | 0.00 | 39 | 1019.3 |
| 20260508171341 | 18 | 247 | 3.2 | 4.8 | 0.00 | 0.00 | 0.00 | 40 | 1019.3 |
| 20260508170840 | 18 | 281 | 1.6 | 4.8 | 0.00 | 0.00 | 0.00 | 35 | 1020.0 |
| 20260508170341 | 18 | 199 | 4.8 | 9.7 | 0.00 | 0.00 | 0.00 | 39 | 1019.6 |
| 20260508165840 | 19 | 104 | 3.2 | 8.0 | 0.00 | 0.00 | 0.00 | 35 | 1020.0 |
| 20260508165340 | 18 | 285 | 3.2 | 6.4 | 0.00 | 0.00 | 0.00 | 38 | 1020.3 |
| 20260508164840 | 18 | 217 | 4.8 | 4.8 | 0.00 | 0.00 | 0.00 | 42 | 1020.3 |
| 20260508164339 | 18 | 108 | 4.8 | 4.8 | 0.00 | 0.00 | 0.00 | 41 | 1020.3 |
| 20260508163840 | 18 | 63 | 1.6 | 8.0 | 0.00 | 0.00 | 0.00 | 35 | 1020.3 |
| 20260508162857 | 17 | 219 | 4.8 | 6.4 | 0.00 | 0.00 | 0.00 | 42 | 1020.7 |
| 20260508162340 | 17 | 81 | 1.6 | 4.8 | 0.00 | 0.00 | 0.00 | 41 | 1020.7 |
| 20260508161840 | 17 | 30 | 1.6 | 6.4 | 0.00 | 0.00 | 0.00 | 37 | 1020.7 |
| 20260508161339 | 17 | 111 | 0.0 | 4.8 | 0.00 | 0.00 | 0.00 | 40 | 1020.7 |
| 20260508160840 | 17 | 119 | 0.0 | 3.2 | 0.00 | 0.00 | 0.00 | 46 | 1021.0 |
| 20260508160339 | 16 | 157 | 0.0 | 6.4 | 0.00 | 0.00 | 0.00 | 42 | 1021.0 |
| 20260508155840 | 16 | 89 | 0.0 | 9.7 | 0.00 | 0.00 | 0.00 | 41 | 1021.0 |
| 20260508155341 | 16 | 184 | 1.6 | 4.8 | 0.00 | 0.00 | 0.00 | 47 | 1021.3 |
| 20260508154839 | 16 | 215 | 0.0 | 3.2 | 0.00 | 0.00 | 0.00 | 43 | 1021.3 |
| 20260508154339 | 16 | 65 | 3.2 | 4.8 | 0.00 | 0.00 | 0.00 | 48 | 1021.3 |
| 20260508153840 | 16 | 149 | 1.6 | 3.2 | 0.00 | 0.00 | 0.00 | 49 | 1021.3 |
| 20260508153340 | 15 | 281 | 6.4 | 12.9 | 0.00 | 0.00 | 0.00 | 48 | 1021.7 |
| 20260508152839 | 15 | 105 | 1.6 | 8.0 | 0.00 | 0.00 | 0.00 | 52 | 1021.7 |
| 20260508152340 | 15 | 161 | 4.8 | 8.0 | 0.00 | 0.00 | 0.00 | 52 | 1021.3 |
| 20260508151840 | 14 | 96 | 4.8 | 8.0 | 0.00 | 0.00 | 0.00 | 51 | 1021.7 |
| 20260508151340 | 14 | 89 | 4.8 | 6.4 | 0.00 | 0.00 | 0.00 | 53 | 1021.7 |
| 20260508150840 | 13 | 214 | 4.8 | 6.4 | 0.00 | 0.00 | 0.00 | 55 | 1021.7 |
| 20260508150343 | 13 | 123 | 4.8 | 6.4 | 0.00 | 0.00 | 0.00 | 58 | 1021.7 |
| 20260508145840 | 12 | 94 | 3.2 | 6.4 | 0.00 | 0.00 | 0.00 | 59 | 1021.7 |
| 20260508145340 | 12 | 106 | 3.2 | 6.4 | 0.00 | 0.00 | 0.00 | 62 | 1021.7 |
| 20260508144839 | 12 | 108 | 3.2 | 4.8 | 0.00 | 0.00 | 0.00 | 65 | 1021.7 |
| 20260508144339 | 11 | 103 | 3.2 | 6.4 | 0.00 | 0.00 | 0.00 | 62 | 1021.7 |
| 20260508143839 | 11 | 105 | 3.2 | 4.8 | 0.00 | 0.00 | 0.00 | 65 | 1021.7 |
| 20260508143339 | 11 | 105 | 4.8 | 6.4 | 0.00 | 0.00 | 0.00 | 67 | 1021.7 |
| 20260508142840 | 10 | 105 | 3.2 | 4.8 | 0.00 | 0.00 | 0.00 | 70 | 1021.3 |
| 20260508142339 | 10 | 121 | 1.6 | 4.8 | 0.00 | 0.00 | 0.00 | 76 | 1021.3 |
| 20260508141840 | 10 | 127 | 0.0 | 4.8 | 0.00 | 0.00 | 0.00 | 80 | 1021.7 |
| 20260508141340 | 10 | 105 | 4.8 | 4.8 | 0.00 | 0.00 | 0.00 | 85 | 1021.3 |
| 20260508140840 | 8 | 100 | 3.2 | 4.8 | 0.00 | 0.00 | 0.00 | 89 | 1021.7 |
| 20260508140342 | 8 | 102 | 4.8 | 4.8 | 0.00 | 0.00 | 0.00 | 90 | 1021.7 |
| 20260508135840 | 8 | 111 | 3.2 | 4.8 | 0.00 | 0.00 | 0.00 | 93 | 1021.7 |
| 20260508135340 | 7 | 97 | 1.6 | 4.8 | 0.00 | 0.00 | 0.00 | 96 | 1021.3 |
| 20260508134840 | 7 | 110 | 3.2 | 4.8 | 0.00 | 0.00 | 0.00 | 97 | 1021.3 |
| 20260508134347 | 7 | 129 | 4.8 | 4.8 | 0.00 | 0.00 | 0.00 | 97 | 1021.3 |
| 20260508133842 | 6 | 89 | 3.2 | 4.8 | 0.00 | 0.00 | 0.00 | 97 | 1021.7 |
| 20260508133341 | 6 | 119 | 3.2 | 4.8 | 0.00 | 0.00 | 0.00 | 97 | 1021.7 |
| 20260508132842 | 6 | 84 | 3.2 | 4.8 | 0.00 | 0.00 | 0.00 | 97 | 1021.7 |
| 20260508132345 | 5 | 96 | 3.2 | 4.8 | 0.00 | 0.00 | 0.00 | 97 | 1021.7 |
| 20260508131840 | 5 | 138 | 3.2 | 3.2 | 0.00 | 0.00 | 0.00 | 98 | 1021.7 |
| 20260508131341 | 4 | 124 | 0.0 | 3.2 | 0.00 | 0.00 | 0.00 | 98 | 1021.7 |
| 20260508130843 | 4 | 69 | 1.6 | 4.8 | 0.00 | 0.00 | 0.00 | 98 | 1021.7 |
| 20260508130342 | 4 | 53 | 3.2 | 3.2 | 0.00 | 0.00 | 0.00 | 97 | 1021.7 |
| 20260508125844 | 3 | 107 | 3.2 | 4.8 | 0.00 | 0.00 | 0.00 | 97 | 1021.7 |
| 20260508125340 | 3 | 127 | 1.6 | 4.8 | 0.00 | 0.00 | 0.00 | 97 | 1021.7 |
| 20260508124841 | 3 | 167 | 1.6 | 4.8 | 0.00 | 0.00 | 0.00 | 98 | 1021.3 |
| 20260508124340 | 3 | 70 | 3.2 | 6.4 | 0.00 | 0.00 | 0.00 | 98 | 1021.7 |
| 20260508123841 | 3 | 62 | 3.2 | 4.8 | 0.00 | 0.00 | 0.00 | 97 | 1021.7 |
| 20260508123340 | 2 | 219 | 1.6 | 4.8 | 0.00 | 0.00 | 0.00 | 97 | 1021.7 |
| 20260508122841 | 2 | 205 | 0.0 | 4.8 | 0.00 | 0.00 | 0.00 | 98 | 1021.7 |
| 20260508122343 | 2 | 79 | 1.6 | 4.8 | 0.00 | 0.00 | 0.00 | 98 | 1021.7 |
| 20260508121842 | 2 | 30 | 0.0 | 3.2 | 0.00 | 0.00 | 0.00 | 98 | 1021.7 |
| 20260508121341 | 2 | 104 | 3.2 | 6.4 | 0.00 | 0.00 | 0.00 | 98 | 1021.7 |
| 20260508120841 | 2 | 20 | 0.0 | 4.8 | 0.00 | 0.00 | 0.00 | 98 | 1021.7 |
| 20260508120342 | 2 | 345 | 3.2 | 6.4 | 0.00 | 0.00 | 0.00 | 98 | 1021.3 |
| 20260508115841 | 1 | 58 | 4.8 | 8.0 | 0.00 | 0.00 | 0.00 | 98 | 1021.3 |
| 20260508115341 | 1 | 46 | 3.2 | 8.0 | 0.00 | 0.00 | 0.00 | 98 | 1021.7 |
| 20260508114841 | 1 | 302 | 4.8 | 6.4 | 0.00 | 0.00 | 0.00 | 98 | 1021.7 |
| 20260508114340 | 1 | 191 | 1.6 | 4.8 | 0.00 | 0.00 | 0.00 | 97 | 1021.3 |
| 20260508113843 | 1 | 287 | 1.6 | 4.8 | 0.00 | 0.00 | 0.00 | 97 | 1021.3 |
| 20260508113343 | 1 | 85 | 3.2 | 4.8 | 0.00 | 0.00 | 0.00 | 97 | 1021.3 |
| 20260508112843 | 1 | 67 | 3.2 | 4.8 | 0.00 | 0.00 | 0.00 | 97 | 1021.0 |
| 20260508112340 | 1 | 127 | 4.8 | 4.8 | 0.00 | 0.00 | 0.00 | 97 | 1021.3 |
| 20260508111842 | 1 | 189 | 3.2 | 3.2 | 0.00 | 0.00 | 0.00 | 97 | 1021.0 |
| 20260508111005 | 1 | 311 | 0.0 | 4.8 | 0.00 | 0.00 | 0.00 | 97 | 1021.0 |
| 20260508110339 | 1 | 195 | 0.0 | 6.4 | 0.00 | 0.00 | 0.00 | 97 | 1021.0 |
| 20260508105839 | 1 | 233 | 1.6 | 4.8 | 0.00 | 0.00 | 0.00 | 97 | 1021.0 |
| 20260508105339 | 1 | 79 | 4.8 | 6.4 | 0.00 | 0.00 | 0.00 | 97 | 1020.7 |
| 20260508104840 | 1 | 35 | 4.8 | 8.0 | 0.00 | 0.00 | 0.00 | 97 | 1020.7 |
| 20260508104339 | 1 | 25 | 4.8 | 6.4 | 0.00 | 0.00 | 0.00 | 97 | 1020.7 |
| 20260508103845 | 1 | 137 | 0.0 | 4.8 | 0.00 | 0.00 | 0.00 | 97 | 1020.7 |
| 20260508103341 | 1 | 67 | 3.2 | 4.8 | 0.00 | 0.00 | 0.00 | 97 | 1020.7 |
| 20260508102839 | 1 | 47 | 1.6 | 6.4 | 0.00 | 0.00 | 0.00 | 97 | 1020.7 |
| 20260508102340 | 1 | 123 | 1.6 | 4.8 | 0.00 | 0.00 | 0.00 | 97 | 1020.7 |
| 20260508101840 | 1 | 51 | 3.2 | 3.2 | 0.00 | 0.00 | 0.00 | 97 | 1020.7 |
| 20260508101340 | 1 | 66 | 0.0 | 4.8 | 0.00 | 0.00 | 0.00 | 97 | 1020.7 |
| 20260508100839 | 1 | 144 | 4.8 | 6.4 | 0.00 | 0.00 | 0.00 | 97 | 1020.3 |
| 20260508100339 | 1 | 85 | 3.2 | 4.8 | 0.00 | 0.00 | 0.00 | 97 | 1020.3 |
| 20260508095839 | 1 | 256 | 0.0 | 4.8 | 0.00 | 0.00 | 0.00 | 97 | 1020.3 |
| 20260508095342 | 1 | 166 | 0.0 | 4.8 | 0.00 | 0.00 | 0.00 | 97 | 1020.3 |
| 20260508094840 | 1 | 44 | 4.8 | 6.4 | 0.00 | 0.00 | 0.00 | 97 | 1020.3 |
| 20260508094340 | 1 | 12 | 4.8 | 8.0 | 0.00 | 0.00 | 0.00 | 97 | 1020.3 |
| 20260508093843 | 1 | 235 | 3.2 | 6.4 | 0.00 | 0.00 | 0.00 | 97 | 1020.3 |
| 20260508093339 | 2 | 132 | 3.2 | 6.4 | 0.00 | 0.00 | 0.00 | 97 | 1020.3 |
| 20260508092839 | 2 | 183 | 0.0 | 4.8 | 0.00 | 0.00 | 0.00 | 97 | 1020.3 |
| 20260508092339 | 2 | 149 | 1.6 | 6.4 | 0.00 | 0.00 | 0.00 | 97 | 1020.3 |
| 20260508091839 | 2 | 69 | 1.6 | 4.8 | 0.00 | 0.00 | 0.00 | 97 | 1020.3 |
| 20260508091339 | 2 | 306 | 0.0 | 4.8 | 0.00 | 0.00 | 0.00 | 97 | 1020.3 |
| 20260508090840 | 2 | 245 | 1.6 | 4.8 | 0.00 | 0.00 | 0.00 | 97 | 1020.0 |
| 20260508090339 | 2 | 27 | 3.2 | 8.0 | 0.00 | 0.00 | 0.00 | 97 | 1020.0 |
| 20260508085842 | 2 | 22 | 0.0 | 6.4 | 0.00 | 0.00 | 0.00 | 97 | 1020.0 |
| 20260508085339 | 2 | 15 | 3.2 | 6.4 | 0.00 | 0.00 | 0.00 | 97 | 1020.0 |
| 20260508084839 | 2 | 70 | 6.4 | 6.4 | 0.00 | 0.00 | 0.00 | 97 | 1020.0 |
| 20260508084339 | 2 | 68 | 0.0 | 4.8 | 0.00 | 0.00 | 0.00 | 97 | 1020.3 |
| 20260508083840 | 2 | 222 | 0.0 | 6.4 | 0.00 | 0.00 | 0.00 | 97 | 1020.0 |
| 20260508083340 | 2 | 220 | 3.2 | 6.4 | 0.00 | 0.00 | 0.00 | 97 | 1019.6 |
| 20260508082841 | 2 | 95 | 1.6 | 6.4 | 0.00 | 0.00 | 0.00 | 97 | 1019.6 |
| 20260508082339 | 2 | 172 | 0.0 | 4.8 | 0.00 | 0.00 | 0.00 | 97 | 1020.0 |
| 20260508081841 | 2 | 148 | 6.4 | 9.7 | 0.00 | 0.00 | 0.00 | 97 | 1020.0 |
| 20260508081340 | 2 | 209 | 1.6 | 6.4 | 0.00 | 0.00 | 0.00 | 97 | 1020.0 |
| 20260508080840 | 2 | 49 | 6.4 | 9.7 | 0.00 | 0.00 | 0.00 | 97 | 1019.6 |
| 20260508080340 | 2 | 42 | 4.8 | 6.4 | 0.00 | 0.00 | 0.00 | 97 | 1019.3 |
| 20260508075839 | 2 | 27 | 4.8 | 8.0 | 0.00 | 0.00 | 0.00 | 97 | 1020.0 |
| 20260508075340 | 2 | 5 | 3.2 | 4.8 | 0.00 | 0.00 | 0.00 | 97 | 1019.6 |
| 20260508074839 | 2 | 322 | 0.0 | 3.2 | 0.00 | 0.00 | 0.00 | 97 | 1019.6 |
| 20260508074339 | 2 | 203 | 3.2 | 4.8 | 0.00 | 0.00 | 0.00 | 97 | 1019.6 |
| 20260508073840 | 2 | 275 | 0.0 | 6.4 | 0.00 | 0.00 | 0.00 | 97 | 1019.6 |
| 20260508073340 | 2 | 338 | 0.0 | 8.0 | 0.00 | 0.00 | 0.00 | 97 | 1019.6 |
| 20260508072839 | 2 | 160 | 6.4 | 8.0 | 0.00 | 0.00 | 0.00 | 97 | 1019.6 |
| 20260508072340 | 2 | 182 | 0.0 | 6.4 | 0.00 | 0.00 | 0.00 | 97 | 1019.6 |
| 20260508071840 | 2 | 130 | 0.0 | 0.0 | 0.00 | 0.00 | 0.00 | 97 | 1020.0 |
| 20260508071340 | 3 | 164 | 4.8 | 8.0 | 0.00 | 0.00 | 0.00 | 96 | 1019.6 |
| 20260508070839 | 3 | 150 | 0.0 | 0.0 | 0.00 | 0.00 | 0.00 | 96 | 1019.3 |
| 20260508070340 | 3 | 214 | 0.0 | 1.6 | 0.00 | 0.00 | 0.00 | 96 | 1019.6 |
| 20260508065840 | 3 | 124 | 0.0 | 1.6 | 0.00 | 0.00 | 0.00 | 96 | 1019.3 |
| 20260508065340 | 3 | 180 | 0.0 | 1.6 | 0.00 | 0.00 | 0.00 | 96 | 1019.3 |
| 20260508064839 | 3 | 66 | 0.0 | 0.0 | 0.00 | 0.00 | 0.00 | 96 | 1019.3 |
| 20260508064344 | 3 | 55 | 0.0 | 0.0 | 0.00 | 0.00 | 0.00 | 96 | 1019.3 |
| 20260508063839 | 3 | 218 | 0.0 | 0.0 | 0.00 | 0.00 | 0.00 | 96 | 1019.3 |
| 20260508063339 | 3 | 129 | 0.0 | 0.0 | 0.00 | 0.00 | 0.00 | 96 | 1019.3 |
| 20260508062840 | 3 | 103 | 0.0 | 0.0 | 0.00 | 0.00 | 0.00 | 96 | 1019.3 |
| 20260508062340 | 3 | 235 | 0.0 | 0.0 | 0.00 | 0.00 | 0.00 | 96 | 1019.3 |
| 20260508061839 | 3 | 116 | 0.0 | 0.0 | 0.00 | 0.00 | 0.00 | 96 | 1019.3 |
| 20260508061339 | 3 | 32 | 0.0 | 1.6 | 0.00 | 0.00 | 0.00 | 96 | 1019.3 |
| 20260508060839 | 3 | 209 | 0.0 | 0.0 | 0.00 | 0.00 | 0.00 | 96 | 1019.3 |
| 20260508060339 | 3 | 180 | 0.0 | 0.0 | 0.00 | 0.00 | 0.00 | 96 | 1019.3 |
| 20260508055839 | 3 | 218 | 0.0 | 0.0 | 0.00 | 0.00 | 0.00 | 96 | 1019.3 |
| 20260508055339 | 3 | 150 | 0.0 | 0.0 | 0.00 | 0.00 | 0.00 | 96 | 1019.3 |
| 20260508054839 | 3 | 150 | 0.0 | 0.0 | 0.00 | 0.00 | 0.00 | 96 | 1019.6 |
| 20260508054339 | 3 | 230 | 0.0 | 1.6 | 0.00 | 0.00 | 0.00 | 96 | 1019.6 |
| 20260508053839 | 3 | 310 | 0.0 | 0.0 | 0.00 | 0.00 | 0.00 | 96 | 1019.6 |
| 20260508053341 | 4 | 22 | 0.0 | 0.0 | 0.00 | 0.00 | 0.00 | 96 | 1019.6 |
| 20260508052839 | 4 | 173 | 0.0 | 0.0 | 0.00 | 0.00 | 0.00 | 96 | 1019.6 |
| 20260508052339 | 4 | 58 | 0.0 | 1.6 | 0.00 | 0.00 | 0.00 | 96 | 1019.6 |
| 20260508051839 | 4 | 32 | 0.0 | 1.6 | 0.00 | 0.00 | 0.00 | 96 | 1019.6 |
| 20260508051341 | 4 | 124 | 0.0 | 0.0 | 0.00 | 0.00 | 0.00 | 96 | 1019.6 |
| 20260508050839 | 4 | 202 | 0.0 | 0.0 | 0.00 | 0.00 | 0.00 | 96 | 1019.3 |
| 20260508050339 | 4 | 239 | 0.0 | 1.6 | 0.00 | 0.00 | 0.00 | 96 | 1019.6 |
| 20260508045839 | 4 | 135 | 0.0 | 0.0 | 0.00 | 0.00 | 0.05 | 96 | 1019.3 |
| 20260508045339 | 5 | 65 | 1.6 | 3.2 | 0.00 | 0.00 | 0.05 | 96 | 1019.0 |
| 20260508044848 | 5 | 246 | 0.0 | 0.0 | 0.00 | 0.00 | 0.05 | 95 | 1019.0 |
| 20260508044339 | 5 | 212 | 0.0 | 0.0 | 0.00 | 0.00 | 0.05 | 95 | 1019.0 |
| 20260508043840 | 5 | 135 | 0.0 | 1.6 | 0.00 | 0.00 | 0.05 | 95 | 1019.0 |
| 20260508043339 | 5 | 186 | 0.0 | 1.6 | 0.00 | 0.00 | 0.05 | 96 | 1019.0 |
| 20260508042839 | 5 | 55 | 0.0 | 1.6 | 0.00 | 0.00 | 0.05 | 95 | 1019.0 |
| 20260508042340 | 5 | 55 | 0.0 | 1.6 | 0.00 | 0.00 | 0.05 | 95 | 1018.6 |
| 20260508041846 | 5 | 6 | 0.0 | 0.0 | 0.00 | 0.00 | 0.05 | 95 | 1019.0 |
| 20260508041340 | 5 | 232 | 0.0 | 1.6 | 0.00 | 0.00 | 0.05 | 95 | 1018.6 |
| 20260508040840 | 5 | 37 | 0.0 | 1.6 | 0.00 | 0.00 | 0.05 | 95 | 1018.3 |
| 20260508040340 | 5 | 193 | 0.0 | 1.6 | 0.00 | 0.00 | 0.05 | 95 | 1018.3 |
| 20260508035840 | 5 | 50 | 0.0 | 0.0 | 0.00 | 0.00 | 0.05 | 95 | 1018.6 |
| 20260508035340 | 5 | 230 | 0.0 | 0.0 | 0.00 | 0.00 | 0.05 | 95 | 1018.6 |
| 20260508034839 | 5 | 126 | 0.0 | 0.0 | 0.00 | 0.00 | 0.05 | 95 | 1018.3 |
| 20260508034340 | 5 | 129 | 0.0 | 0.0 | 0.00 | 0.00 | 0.05 | 95 | 1018.6 |
| 20260508033839 | 5 | 186 | 0.0 | 0.0 | 0.00 | 0.00 | 0.05 | 95 | 1018.6 |
| 20260508033340 | 5 | 76 | 0.0 | 1.6 | 0.00 | 0.00 | 0.05 | 95 | 1018.6 |
| 20260508032839 | 6 | 48 | 0.0 | 1.6 | 0.00 | 0.00 | 0.05 | 95 | 1018.6 |
| 20260508032340 | 6 | 45 | 0.0 | 1.6 | 0.00 | 0.00 | 0.05 | 95 | 1018.6 |
| 20260508031840 | 6 | 326 | 0.0 | 0.0 | 0.00 | 0.00 | 0.05 | 94 | 1018.6 |
| 20260508031339 | 6 | 217 | 0.0 | 0.0 | 0.00 | 0.00 | 0.05 | 94 | 1018.6 |
| 20260508030839 | 6 | 225 | 1.6 | 1.6 | 0.00 | 0.00 | 0.05 | 94 | 1018.6 |
| 20260508030340 | 6 | 89 | 0.0 | 1.6 | 0.00 | 0.00 | 0.05 | 94 | 1017.9 |
| 20260508025839 | 6 | 92 | 1.6 | 3.2 | 0.00 | 0.00 | 0.05 | 94 | 1018.3 |
| 20260508024850 | 6 | 44 | 0.0 | 0.0 | 0.00 | 0.00 | 0.05 | 94 | 1018.3 |
| 20260508024340 | 6 | 57 | 0.0 | 0.0 | 0.00 | 0.00 | 0.05 | 94 | 1018.3 |
| 20260508023839 | 6 | 229 | 0.0 | 1.6 | 0.00 | 0.00 | 0.05 | 93 | 1018.3 |
| 20260508023340 | 6 | 217 | 0.0 | 0.0 | 0.00 | 0.00 | 0.05 | 93 | 1017.9 |
| 20260508022839 | 7 | 228 | 0.0 | 3.2 | 0.00 | 0.00 | 0.05 | 93 | 1017.9 |
| 20260508022339 | 7 | 37 | 0.0 | 0.0 | 0.00 | 0.00 | 0.05 | 93 | 1017.9 |
| 20260508021840 | 7 | 105 | 0.0 | 0.0 | 0.00 | 0.00 | 0.05 | 92 | 1017.9 |
| 20260508021339 | 7 | 216 | 0.0 | 1.6 | 0.00 | 0.00 | 0.05 | 92 | 1017.6 |
| 20260508020840 | 7 | 124 | 0.0 | 3.2 | 0.00 | 0.00 | 0.05 | 92 | 1017.6 |
| 20260508020341 | 7 | 293 | 0.0 | 1.6 | 0.00 | 0.00 | 0.05 | 92 | 1017.6 |
| 20260508015839 | 7 | 202 | 0.0 | 1.6 | 0.00 | 0.00 | 0.05 | 92 | 1017.6 |
| 20260508015339 | 7 | 135 | 0.0 | 0.0 | 0.00 | 0.00 | 0.05 | 92 | 1017.3 |
| 20260508014840 | 7 | 113 | 0.0 | 1.6 | 0.00 | 0.00 | 0.05 | 91 | 1017.3 |
| 20260508014339 | 7 | 217 | 0.0 | 0.0 | 0.00 | 0.00 | 0.05 | 91 | 1017.3 |
| 20260508013840 | 7 | 102 | 0.0 | 1.6 | 0.00 | 0.00 | 0.05 | 91 | 1017.3 |
| 20260508013340 | 8 | 33 | 0.0 | 1.6 | 0.00 | 0.00 | 0.05 | 92 | 1016.9 |
| 20260508012840 | 8 | 180 | 0.0 | 1.6 | 0.00 | 0.00 | 0.05 | 92 | 1016.9 |
| 20260508012339 | 8 | 230 | 0.0 | 1.6 | 0.00 | 0.00 | 0.05 | 91 | 1016.9 |
| 20260508011841 | 8 | 142 | 0.0 | 0.0 | 0.00 | 0.00 | 0.05 | 91 | 1016.6 |
| 20260508011340 | 8 | 113 | 0.0 | 1.6 | 0.00 | 0.00 | 0.05 | 90 | 1016.9 |
| 20260508010839 | 8 | 50 | 0.0 | 1.6 | 0.00 | 0.00 | 0.05 | 90 | 1016.6 |
| 20260508010339 | 8 | 135 | 0.0 | 1.6 | 0.00 | 0.00 | 0.05 | 90 | 1016.6 |
| 20260508005839 | 9 | 113 | 0.0 | 0.0 | 0.00 | 0.00 | 0.05 | 89 | 1016.6 |
| 20260508005339 | 9 | 157 | 0.0 | 1.6 | 0.00 | 0.00 | 0.05 | 89 | 1016.3 |
| 20260508004839 | 9 | 61 | 0.0 | 3.2 | 0.00 | 0.00 | 0.05 | 89 | 1016.3 |
| 20260508004339 | 9 | 149 | 0.0 | 1.6 | 0.00 | 0.00 | 0.05 | 89 | 1016.3 |
| 20260508003840 | 10 | 162 | 0.0 | 1.6 | 0.00 | 0.00 | 0.05 | 90 | 1016.3 |
| 20260508003340 | 10 | 66 | 0.0 | 0.0 | 0.00 | 0.00 | 0.05 | 89 | 1016.3 |
| 20260508002840 | 10 | 296 | 0.0 | 1.6 | 0.00 | 0.00 | 0.05 | 88 | 1016.3 |
| 20260508002340 | 10 | 129 | 0.0 | 0.0 | 0.00 | 0.00 | 0.05 | 87 | 1016.3 |
| 20260508001839 | 10 | 322 | 0.0 | 1.6 | 0.00 | 0.00 | 0.05 | 86 | 1015.9 |
| 20260508001340 | 10 | 135 | 0.0 | 0.0 | 0.00 | 0.00 | 0.05 | 87 | 1015.9 |
| 20260508000840 | 11 | 227 | 0.0 | 3.2 | 0.00 | 0.00 | 0.05 | 86 | 1015.9 |
| 20260508000342 | 11 | 62 | 0.0 | 0.0 | 0.00 | 0.00 | 0.05 | 86 | 1015.9 |
| 20260507235839 | 11 | 170 | 0.0 | 1.6 | 0.00 | 0.00 | 0.05 | 85 | 1015.6 |
| 20260507235340 | 11 | 109 | 0.0 | 1.6 | 0.00 | 0.00 | 0.05 | 85 | 1015.6 |
| 20260507234839 | 12 | 147 | 0.0 | 1.6 | 0.00 | 0.00 | 0.05 | 83 | 1015.6 |
| 20260507234339 | 12 | 218 | 0.0 | 3.2 | 0.00 | 0.00 | 0.05 | 82 | 1015.6 |
| 20260507233840 | 12 | 217 | 0.0 | 1.6 | 0.00 | 0.00 | 0.05 | 81 | 1015.6 |
| 20260507233340 | 12 | 224 | 0.0 | 0.0 | 0.00 | 0.00 | 0.05 | 82 | 1015.6 |
| 20260507232839 | 12 | 43 | 0.0 | 1.6 | 0.00 | 0.00 | 0.05 | 81 | 1015.6 |
| 20260507232339 | 12 | 159 | 0.0 | 1.6 | 0.00 | 0.00 | 0.05 | 79 | 1015.2 |
| 20260507231840 | 12 | 142 | 0.0 | 1.6 | 0.00 | 0.00 | 0.05 | 80 | 1015.6 |
| 20260507231340 | 12 | 93 | 0.0 | 3.2 | 0.00 | 0.00 | 0.05 | 80 | 1015.6 |
| 20260507230840 | 12 | 142 | 0.0 | 0.0 | 0.00 | 0.00 | 0.05 | 80 | 1015.6 |
| 20260507230340 | 13 | 242 | 0.0 | 4.8 | 0.00 | 0.00 | 0.05 | 80 | 1015.6 |
| 20260507225839 | 13 | 66 | 0.0 | 3.2 | 0.00 | 0.00 | 0.05 | 81 | 1015.6 |
| 20260507225340 | 13 | 269 | 0.0 | 3.2 | 0.00 | 0.00 | 0.05 | 80 | 1015.6 |
| 20260507224839 | 13 | 103 | 0.0 | 3.2 | 0.00 | 0.00 | 0.05 | 79 | 1015.6 |
| 20260507224340 | 13 | 204 | 1.6 | 4.8 | 0.00 | 0.00 | 0.05 | 79 | 1015.6 |
| 20260507223839 | 14 | 224 | 0.0 | 4.8 | 0.00 | 0.00 | 0.05 | 74 | 1015.6 |
| 20260507223343 | 14 | 108 | 3.2 | 4.8 | 0.00 | 0.00 | 0.05 | 76 | 1015.2 |
| 20260507222840 | 14 | 62 | 1.6 | 4.8 | 0.00 | 0.00 | 0.05 | 75 | 1015.2 |
| 20260507222339 | 14 | 103 | 3.2 | 4.8 | 0.00 | 0.00 | 0.05 | 77 | 1015.2 |
| 20260507221843 | 14 | 55 | 0.0 | 1.6 | 0.00 | 0.00 | 0.05 | 75 | 1015.2 |
| 20260507221339 | 14 | 117 | 0.0 | 1.6 | 0.00 | 0.00 | 0.05 | 78 | 1015.2 |
| 20260507220839 | 14 | 216 | 3.2 | 3.2 | 0.00 | 0.00 | 0.05 | 79 | 1015.6 |
| 20260507220339 | 14 | 61 | 1.6 | 3.2 | 0.00 | 0.00 | 0.05 | 79 | 1015.2 |
| 20260507215839 | 15 | 253 | 0.0 | 4.8 | 0.00 | 0.00 | 0.05 | 76 | 1015.2 |
| 20260507215342 | 15 | 96 | 4.8 | 4.8 | 0.00 | 0.00 | 0.05 | 73 | 1014.9 |
| 20260507214839 | 15 | 233 | 1.6 | 3.2 | 0.00 | 0.00 | 0.05 | 72 | 1014.9 |
| 20260507214339 | 15 | 32 | 0.0 | 1.6 | 0.00 | 0.00 | 0.05 | 70 | 1014.9 |
| 20260507213840 | 15 | 244 | 3.2 | 4.8 | 0.00 | 0.00 | 0.05 | 66 | 1015.2 |
| 20260507213339 | 16 | 348 | 0.0 | 1.6 | 0.00 | 0.00 | 0.05 | 65 | 1014.9 |
| 20260507212839 | 15 | 235 | 0.0 | 1.6 | 0.00 | 0.00 | 0.05 | 69 | 1014.9 |
| 20260507212339 | 16 | 15 | 0.0 | 1.6 | 0.00 | 0.00 | 0.05 | 65 | 1014.9 |
| 20260507211840 | 16 | 266 | 0.0 | 3.2 | 0.00 | 0.00 | 0.05 | 61 | 1014.9 |
| 20260507211340 | 16 | 275 | 1.6 | 4.8 | 0.00 | 0.00 | 0.05 | 55 | 1014.9 |
| 20260507210840 | 17 | 14 | 6.4 | 6.4 | 0.00 | 0.00 | 0.05 | 59 | 1014.9 |
| 20260507210339 | 17 | 247 | 4.8 | 9.7 | 0.00 | 0.00 | 0.05 | 57 | 1014.9 |
| 20260507205840 | 17 | 266 | 3.2 | 4.8 | 0.00 | 0.00 | 0.05 | 54 | 1014.9 |
| 20260507205340 | 17 | 279 | 1.6 | 11.3 | 0.00 | 0.00 | 0.05 | 52 | 1014.6 |
| 20260507204840 | 16 | 259 | 1.6 | 9.7 | 0.00 | 0.00 | 0.05 | 56 | 1014.9 |
| 20260507204340 | 16 | 297 | 3.2 | 4.8 | 0.00 | 0.00 | 0.05 | 57 | 1014.9 |
| 20260507203840 | 17 | 287 | 4.8 | 14.5 | 0.00 | 0.00 | 0.05 | 51 | 1014.9 |
| 20260507203340 | 16 | 289 | 0.0 | 3.2 | 0.00 | 0.00 | 0.05 | 58 | 1014.9 |
| 20260507202839 | 16 | 243 | 1.6 | 3.2 | 0.00 | 0.00 | 0.05 | 62 | 1014.6 |
| 20260507202339 | 16 | 262 | 4.8 | 4.8 | 0.00 | 0.00 | 0.05 | 59 | 1014.6 |
| 20260507201841 | 16 | 246 | 4.8 | 8.0 | 0.00 | 0.00 | 0.05 | 59 | 1014.9 |
| 20260507201340 | 16 | 79 | 0.0 | 6.4 | 0.00 | 0.00 | 0.05 | 53 | 1015.2 |
| 20260507200840 | 16 | 59 | 1.6 | 6.4 | 0.00 | 0.00 | 0.05 | 60 | 1015.2 |
| 20260507200340 | 16 | 112 | 3.2 | 4.8 | 0.00 | 0.00 | 0.05 | 57 | 1014.9 |
| 20260507195839 | 15 | 93 | 1.6 | 4.8 | 0.00 | 0.00 | 0.05 | 61 | 1015.2 |
| 20260507195341 | 15 | 73 | 1.6 | 3.2 | 0.00 | 0.00 | 0.05 | 62 | 1015.2 |
| 20260507194839 | 15 | 246 | 6.4 | 9.7 | 0.00 | 0.00 | 0.05 | 57 | 1015.6 |
| 20260507194340 | 16 | 274 | 3.2 | 6.4 | 0.00 | 0.00 | 0.05 | 59 | 1015.2 |
| 20260507193840 | 16 | 229 | 4.8 | 9.7 | 0.00 | 0.00 | 0.05 | 56 | 1015.2 |
| 20260507193339 | 15 | 144 | 1.6 | 12.9 | 0.00 | 0.00 | 0.05 | 59 | 1015.6 |
| 20260507192842 | 15 | 258 | 4.8 | 12.9 | 0.00 | 0.00 | 0.05 | 56 | 1015.6 |
| 20260507192340 | 15 | 348 | 1.6 | 3.2 | 0.00 | 0.00 | 0.05 | 60 | 1015.6 |
| 20260507191841 | 15 | 236 | 4.8 | 11.3 | 0.00 | 0.00 | 0.05 | 60 | 1015.6 |
| 20260507191339 | 14 | 257 | 0.0 | 3.2 | 0.00 | 0.00 | 0.05 | 69 | 1015.6 |
| 20260507190840 | 13 | 106 | 0.0 | 3.2 | 0.00 | 0.00 | 0.05 | 69 | 1016.3 |
| 20260507190340 | 13 | 328 | 0.0 | 4.8 | 0.00 | 0.00 | 0.05 | 66 | 1016.3 |
| 20260507185840 | 14 | 243 | 6.4 | 9.7 | 0.00 | 0.00 | 0.05 | 60 | 1016.3 |
| 20260507185339 | 14 | 251 | 3.2 | 11.3 | 0.00 | 0.00 | 0.05 | 65 | 1015.9 |
| 20260507184840 | 14 | 289 | 0.0 | 4.8 | 0.00 | 0.00 | 0.05 | 63 | 1016.3 |
| 20260507184340 | 13 | 249 | 4.8 | 8.0 | 0.00 | 0.00 | 0.05 | 66 | 1016.3 |
| 20260507183839 | 13 | 304 | 0.0 | 3.2 | 0.00 | 0.00 | 0.05 | 69 | 1016.3 |